Current Version              Previous Version:    01  02  03  04  05  06  07  08  09  10  11  12  13  14  15  16  17  18  19  20  21  22  23  24  25  26  27  28  29  30  
   31  32  33  34  35  36  37  38  39  40  41  42  43  44  45  46  47  48  49  50  51  52  53  54  55  56  57  58  59  60  

[Printable]
366
ASUS44 KFWD 271210
RWRTX
NORTH TEXAS HOURLY WEATHER ROUNDUP
NATIONAL WEATHER SERVICE FORT WORTH TX
700 AM CDT WED AUG 27 2014

NOTE: "FAIR" INDICATES FEW OR NO CLOUDS BELOW 12,000 FEET WITH NO
SIGNIFICANT WEATHER AND/OR OBSTRUCTIONS TO VISIBILITY.

TXZ118-119-271300-
DALLAS/FORT WORTH METROPLEX

CITY           SKY/WX    TMP DP  RH WIND       PRES   REMARKS
DFW AIRPORT    PTCLDY    77  70  79 SE7       30.03R
6HR MIN TEMP:  77; 6HR MAX TEMP:  84;

DALLAS LOVE    PTCLDY    80  70  71 E6        30.03R
6HR MIN TEMP:  78; 6HR MAX TEMP:  85;

FTW MEACHAM    CLEAR     79  70  74 E5        30.03R
6HR MIN TEMP:  79; 6HR MAX TEMP:  85;

DAL-EXECUTIVE  CLEAR     75  70  84 E3        30.03R
6HR MIN TEMP:  75; 6HR MAX TEMP:  82;

FTW-ALLIANCE   PTCLDY    76  69  79 CALM      30.03R
6HR MIN TEMP:  73; 6HR MAX TEMP:  83;

FTW-NAS-JRB    PTCLDY    81  68  64 SE5       30.07R
6HR MIN TEMP:  81; 6HR MAX TEMP:  88;

ARLINGTON      CLEAR     76  70  82 E3        30.03R
6HR MIN TEMP:  74; 6HR MAX TEMP:  82; 6HR PCP: TRACE;

ADDISON        PTCLDY    79  70  73 E6        30.04R
MESQUITE       CLEAR     73  70  88 CALM      30.03R
LANCASTER      CLEAR     70  65  82 CALM      30.04R
6HR MIN TEMP:  70; 6HR MAX TEMP:  78;

$$

TXZ091>094-102>105-117-120-121-131>134-271300-
NORTH CENTRAL TEXAS

CITY           SKY/WX    TMP DP  RH WIND       PRES   REMARKS
SHRMAN/DENISON CLEAR     73  69  86 E3        30.07R
6HR MIN TEMP:  73; 6HR MAX TEMP:  79;

GAINESVILLE    CLEAR     73  69  89 E3        30.07R
6HR MIN TEMP:  72; 6HR MAX TEMP:  77;

BOWIE          CLEAR     71  69  92 CALM      30.06R
6HR MIN TEMP:  71; 6HR MAX TEMP:  80;

BRIDGEPORT     CLEAR     71  65  82 E3        30.07R
6HR MIN TEMP:  71; 6HR MAX TEMP:  79;

DECATUR        CLEAR     72  69  88 E3        30.06R
6HR MIN TEMP:  72; 6HR MAX TEMP:  79;

DENTON         CLEAR     74  71  91 CALM      30.04R
6HR MIN TEMP:  74; 6HR MAX TEMP:  83;

MCKINNEY       CLEAR     73  70  90 CALM      30.04R
6HR MIN TEMP:  72; 6HR MAX TEMP:  80;

ROCKWALL       CLEAR     74  71  89 CALM      30.03R
6HR MIN TEMP:  74; 6HR MAX TEMP:  80;

TERRELL        CLEAR     76  72  87 NE3       30.04R
6HR MIN TEMP:  74; 6HR MAX TEMP:  81;

WAXAHACHIE     CLEAR     73  68  87 E3        30.05R
6HR MIN TEMP:  73; 6HR MAX TEMP:  79;

CLEBURNE       CLEAR     75  72  88 E3        30.05R
GRANBURY       CLEAR     76  68  76 CALM      30.05R
6HR MIN TEMP:  75; 6HR MAX TEMP:  84;

$$

TXZ083>090-098>101-113>116-127>130-139>142-154-155-271300-
WESTERN NORTH TEXAS

CITY           SKY/WX    TMP DP  RH WIND       PRES   REMARKS
WICHITA FALLS  CLEAR     72  66  81 E6        30.05R
6HR MIN TEMP:  72; 6HR MAX TEMP:  80;

WF-KICKAPOO    CLEAR     73  66  78 E6        30.07R
6HR MIN TEMP:  73; 6HR MAX TEMP:  81;

VERNON         CLEAR     76  64  67 E3        30.06R
6HR MIN TEMP:  76; 6HR MAX TEMP:  95;

ABILENE        CLEAR     75  66  73 SE7       30.07R
6HR MIN TEMP:  74; 6HR MAX TEMP:  82;

ABILENE-DYESS  CLEAR     72  68  85 S5        30.06R
6HR MIN TEMP:  72; 6HR MAX TEMP:  80;

BRECKENRIDGE   CLEAR     77  66  67 SE7       30.04S HAZE
6HR MIN TEMP:  77; 6HR MAX TEMP:  84;

GRAHAM         CLEAR     73  65  77 CALM      30.03R
6HR MIN TEMP:  73; 6HR MAX TEMP:  83;

MINERAL WELLS  CLEAR     73  68  84 E5        30.03R
6HR MIN TEMP:  73; 6HR MAX TEMP:  80;

STEPHENVILLE   CLEAR     72  66  80 CALM      30.08R
6HR MIN TEMP:  72; 6HR MAX TEMP:  82;

COMANCHE       CLEAR     72  66  80 CALM      30.06R
6HR MIN TEMP:  72; 6HR MAX TEMP:  78;

BROWNWOOD      MOCLDY    72  64  78 CALM      30.05S
COLEMAN        CLEAR     74  66  75 CALM      30.06S
6HR MIN TEMP:  74; 6HR MAX TEMP:  81;

BRADY          CLEAR     73  66  78 SE3       30.06R
$$

TXZ143>147-156>162-174-175-271300-
CENTRAL TEXAS

CITY           SKY/WX    TMP DP  RH WIND       PRES   REMARKS
WACO           CLEAR     73  68  84 NE3       30.02R
6HR MIN TEMP:  73; 6HR MAX TEMP:  81;

WACO-TSTC      CLEAR     73  70  88 E5        30.02
WACO-MCGREGOR  CLEAR     72  61  68 CALM      30.04R
6HR MIN TEMP:  72; 6HR MAX TEMP:  81;

HILLSBORO      CLEAR     75  68  79 E7        30.03R
6HR MIN TEMP:  75; 6HR MAX TEMP:  81;

CORSICANA      CLEAR     75  70  84 S3        30.03R
6HR MIN TEMP:  75; 6HR MAX TEMP:  82;

MEXIA          CLEAR     73  70  89 CALM      30.02S
6HR MIN TEMP:  73; 6HR MAX TEMP:  78;

HEARNE           N/A     73  69  87 CALM      30.01R
6HR MIN TEMP:  73; 6HR MAX TEMP:  80;

CAMERON        PTCLDY    74  70  89 CALM      30.01R
6HR MIN TEMP:  74; 6HR MAX TEMP:  80;

TEMPLE         CLEAR     73  63  68 NE3       30.02R
6HR MIN TEMP:  73; 6HR MAX TEMP:  81;

KILLEEN        PTCLDY    75  70  83 CALM      30.03R
KILLEEN-SKYLRK CLEAR     73  64  73 CALM      30.02R
6HR MIN TEMP:  73; 6HR MAX TEMP:  82;

FORT HOOD      CLEAR     77  70  79 CALM      30.03R
6HR MIN TEMP:  76; 6HR MAX TEMP:  83;

GATESVILLE     CLEAR     73  68  83 CALM      30.05S
HAMILTON       CLEAR     73  66  80 S5        30.05S
6HR MIN TEMP:  73; 6HR MAX TEMP:  82;

LAMPASAS       CLEAR     71  69  92 CALM      30.03R
6HR MIN TEMP:  71; 6HR MAX TEMP:  81;

$$

TXZ095>097-106>112-122>126-135>138-148>153-164>167-271300-
EAST TEXAS

CITY           SKY/WX    TMP DP  RH WIND       PRES   REMARKS
PARIS          CLEAR     72  64  78 E7        30.06R
6HR MIN TEMP:  72; 6HR MAX TEMP:  75;

SULPHUR SPRNGS CLEAR     72  71  96 CALM      30.06S FOG
6HR MIN TEMP:  72; 6HR MAX TEMP:  76;

CLARKSVILLE    CLEAR     74  72  92 CALM      30.05S
6HR MIN TEMP:  74; 6HR MAX TEMP:  77;

MOUNT PLEASANT CLEAR     72  71  98 CALM      30.06R
6HR MIN TEMP:  71; 6HR MAX TEMP:  76;

GILMER         CLEAR     73  73 100 CALM      30.06R FOG
MINEOLA        CLEAR     72  72 100 CALM      30.04S FOG
TYLER          CLEAR     74  70  87 CALM      30.03R
6HR MIN TEMP:  74; 6HR MAX TEMP:  80;

LONGVIEW       CLEAR     73  70  90 CALM      30.03R FOG
6HR MIN TEMP:  72; 6HR MAX TEMP:  77;

MARSHALL       CLEAR     72  70  92 CALM      30.06R
6HR MIN TEMP:  72; 6HR MAX TEMP:  76;

ATHENS         CLEAR     70  68  94 CALM      30.02R
PALESTINE      CLEAR     71  69  93 CALM      30.03R
JACKSONVILLE   CLEAR     72  70  94 CALM      30.06R
HENDERSON        N/A     70  70 100 CALM      30.04R FOG
6HR MIN TEMP:  70; 6HR MAX TEMP:  73;

NACOGDOCHES    CLEAR     66  64  94 CALM      30.03R
6HR MIN TEMP:  66; 6HR MAX TEMP:  72;

LUFKIN         PTCLDY    74  69  85 NE3       30.01R
6HR MIN TEMP:  73; 6HR MAX TEMP:  79;

$$

SUPPLEMENTAL OBSERVATIONS (CENTRAL)

CITY           SKY/WX    TMP DP  RH WIND       PRES   REMARKS
CADDO GRASSLND   N/A     70  66  88 W1          N/A
PAT MAYSE LAKE   N/A     73  70  88 NE6         N/A
GREENVILLE       N/A     73  70  88 NE5         N/A
CEDAR HILL       N/A     75  70  83 SE2         N/A
PALESTINE        N/A     68  66  94 CALM        N/A
MCGREGOR         N/A     72  66  83 N1          N/A
TEMPLE           N/A     73  68  83 NE5         N/A
$$

SUPPLEMENTAL OBSERVATIONS (WEST)

CITY           SKY/WX    TMP DP  RH WIND       PRES   REMARKS
MILLERS CREEK    N/A     75  61  60 SE6         N/A